EW5612 Weather Reports


Display with metric or nautical units.
time (UTC)temp
F
wind
direction
speed
MPH
gust
MPH
rain 1hr
in
rain 24hr
in
rain mn
in
humidity
%
barometer
mb
20260906090704 80 182 0.0 0.0 0.00 0.00 0.00 85 1010.6
20260906090203 80 182 0.0 0.0 0.00 0.00 0.00 85 1010.6
20260906085703 81 182 0.0 0.0 0.00 0.00 0.00 85 1010.6
20260906085203 81 182 0.0 0.0 0.00 0.00 0.00 84 1010.5
20260906084704 81 182 0.0 0.0 0.00 0.00 0.00 84 1010.5
20260906084204 81 182 0.0 0.0 0.00 0.00 0.00 84 1010.5
20260906083704 81 182 0.0 0.0 0.00 0.00 0.00 84 1010.5
20260906083204 81 182 0.0 0.0 0.00 0.00 0.00 84 1010.4
20260906081704 81 182 0.0 0.0 0.00 0.00 0.00 84 1010.6
20260906081203 81 182 0.0 0.0 0.00 0.00 0.00 83 1010.6
20260906080704 81 182 0.0 0.0 0.00 0.00 0.00 83 1010.6
20260906080204 81 182 0.0 0.0 0.00 0.00 0.00 83 1010.6
20260906075704 81 182 0.0 0.0 0.00 0.00 0.00 83 1010.7
20260906075204 81 182 0.0 0.0 0.00 0.00 0.00 83 1010.8
20260906074703 81 182 0.0 0.0 0.00 0.00 0.00 83 1010.9
20260906073704 81 182 0.0 0.0 0.00 0.00 0.00 82 1011.1
20260906073204 81 182 0.0 0.0 0.00 0.00 0.00 82 1011.1
20260906072704 82 182 0.0 0.0 0.00 0.00 0.00 82 1011.2
20260906072204 82 182 0.0 0.0 0.00 0.00 0.00 82 1011.3
20260906071203 82 182 0.0 0.0 0.00 0.00 0.00 82 1011.4
20260906070703 82 182 0.0 0.0 0.00 0.00 0.00 81 1011.3
20260906070204 82 182 0.0 0.0 0.00 0.00 0.00 81 1011.5
20260906065704 82 182 0.0 0.0 0.00 0.00 0.00 81 1011.5
20260906065204 82 182 0.0 0.0 0.00 0.00 0.00 80 1011.5
20260906064704 82 182 0.0 0.0 0.00 0.00 0.00 80 1011.5
20260906064204 82 182 0.0 0.0 0.00 0.00 0.00 80 1011.6
20260906063704 82 182 0.0 0.0 0.00 0.00 0.00 79 1011.6
20260906063204 82 182 0.0 0.0 0.00 0.00 0.00 79 1011.6
20260906062703 83 182 0.0 0.0 0.00 0.00 0.00 79 1011.7
20260906062204 83 182 0.0 0.0 0.00 0.00 0.00 78 1011.7
20260906061704 83 120 0.0 0.0 0.00 0.00 0.00 78 1011.7
20260906061203 83 120 0.0 0.0 0.00 0.00 0.00 77 1011.7
20260906060703 83 120 0.0 0.0 0.00 0.00 0.00 77 1011.7
20260906060204 83 119 0.0 0.0 0.00 0.00 0.00 77 1011.7
20260906055704 83 119 0.0 0.0 0.00 0.00 0.00 77 1011.7
20260906055204 83 119 0.0 0.0 0.00 0.00 0.00 76 1011.7
20260906054703 83 119 0.0 0.0 0.00 0.00 0.00 76 1011.7
20260906053703 83 119 0.0 0.0 0.00 0.00 0.00 75 1011.7
20260906053203 84 119 0.0 0.0 0.00 0.00 0.00 74 1011.8
20260906052703 84 119 0.0 0.0 0.00 0.00 0.00 74 1011.8
20260906051704 84 119 0.0 0.0 0.00 0.00 0.00 73 1011.8
20260906051203 84 119 0.0 0.0 0.00 0.00 0.00 73 1011.8
20260906050703 84 119 0.0 0.0 0.00 0.00 0.00 72 1011.8
20260906050204 85 119 0.0 0.0 0.00 0.00 0.00 72 1011.7
20260906045704 85 119 0.0 0.0 0.00 0.00 0.00 72 1011.7
20260906045203 85 119 0.0 0.0 0.00 0.00 0.00 72 1011.7
20260906044703 85 119 0.0 0.0 0.00 0.00 0.00 72 1011.8
20260906044203 85 119 0.0 0.0 0.00 0.00 0.00 71 1011.7
20260906043704 85 119 0.0 0.0 0.00 0.00 0.00 71 1011.5
20260906043204 85 119 0.0 0.0 0.00 0.00 0.00 71 1011.6
20260906042704 85 119 0.0 0.0 0.00 0.00 0.00 71 1011.7
20260906042204 85 115 0.0 0.0 0.00 0.00 0.00 71 1011.7
20260906041703 85 115 0.0 0.0 0.00 0.00 0.00 71 1011.6
20260906040204 86 115 0.0 0.0 0.00 0.00 0.00 70 1011.5
20260906035704 86 115 0.0 0.0 0.00 0.00 0.00 69 1011.5
20260906035204 86 115 0.0 0.0 0.00 0.00 0.00 69 1011.4
20260906034703 86 115 0.0 0.0 0.00 0.00 0.00 69 1011.5
20260906033704 87 115 0.0 0.0 0.00 0.00 0.00 68 1011.5
20260906033203 87 115 0.0 0.0 0.00 0.00 0.00 68 1011.4
20260906032704 87 115 0.0 0.0 0.00 0.00 0.00 68 1011.5
20260906032204 87 115 0.0 0.0 0.00 0.00 0.00 68 1011.4
20260906030704 88 115 0.0 0.0 0.00 0.00 0.00 67 1011.2
20260906030204 88 116 0.0 0.0 0.00 0.00 0.00 66 1011.2
20260906025704 88 116 0.0 0.0 0.00 0.00 0.00 66 1011.1
20260906025203 88 118 0.0 0.0 0.00 0.00 0.00 65 1010.9
20260906024203 89 121 0.0 0.0 0.00 0.00 0.00 63 1010.6
20260906023703 89 106 0.0 0.0 0.00 0.00 0.00 62 1010.4
20260906022203 89 108 0.0 2.0 0.00 0.00 0.00 60 1010.2
20260906021704 90 105 0.0 1.0 0.00 0.00 0.00 59 1010.1
20260906021203 90 103 0.0 0.0 0.00 0.00 0.00 58 1010.0
20260906020204 91 106 0.0 0.0 0.00 0.00 0.00 56 1009.7
20260906015704 91 106 1.0 6.0 0.00 0.00 0.00 56 1009.6
20260906014703 91 104 0.0 0.0 0.00 0.00 0.00 54 1009.5
20260906014203 91 101 0.0 3.0 0.00 0.00 0.00 53 1009.5
20260906013704 91 95 0.0 1.0 0.00 0.00 0.00 53 1009.4
20260906013204 92 316 0.0 2.0 0.00 0.00 0.00 52 1009.4
20260906012204 92 111 0.0 0.0 0.00 0.00 0.00 51 1009.2
20260906011703 92 110 0.0 1.0 0.00 0.00 0.00 52 1009.2
20260906011204 92 110 0.0 0.0 0.00 0.00 0.00 52 1009.2
20260906010203 92 110 0.0 0.0 0.00 0.00 0.00 51 1009.1
20260906005203 93 110 0.0 0.0 0.00 0.00 0.00 50 1009.1
20260906004703 93 110 0.0 3.0 0.00 0.00 0.00 50 1009.2
20260906004203 93 107 0.0 3.0 0.00 0.00 0.00 50 1009.1
20260906003204 94 108 0.0 0.0 0.00 0.00 0.00 49 1009.1
20260906002703 94 108 0.0 0.0 0.00 0.00 0.00 49 1009.1
20260906001704 95 114 1.0 6.0 0.00 0.00 0.00 48 1009.0
20260906000703 95 119 0.0 3.0 0.00 0.00 0.00 48 1008.9
20260905235703 95 122 1.0 3.0 0.00 0.00 0.00 48 1009.0
20260905235204 95 136 1.0 3.0 0.00 0.00 0.00 48 1008.9
20260905234704 95 115 0.0 3.0 0.00 0.00 0.00 48 1008.9
20260905234203 95 119 0.0 0.0 0.00 0.00 0.00 48 1008.8
20260905233703 95 107 0.0 3.0 0.00 0.00 0.00 47 1008.9
20260905233203 96 114 0.0 0.0 0.00 0.00 0.00 46 1008.8
20260905232704 95 113 0.0 0.0 0.00 0.00 0.00 46 1008.8
20260905232203 95 114 0.0 0.0 0.00 0.00 0.00 46 1008.8
20260905231704 95 114 0.0 0.0 0.00 0.00 0.00 47 1008.8
20260905231203 95 107 0.0 0.0 0.00 0.00 0.00 47 1008.7
20260905230704 96 102 0.0 0.0 0.00 0.00 0.00 46 1008.7
20260905225703 96 110 2.0 3.0 0.00 0.00 0.00 45 1008.7
20260905225204 97 100 0.0 2.0 0.00 0.00 0.00 44 1008.7
20260905224704 98 111 0.0 3.0 0.00 0.00 0.00 43 1008.7
20260905224203 99 73 0.0 2.0 0.00 0.00 0.00 41 1008.7
20260905223703 100 70 0.0 0.0 0.00 0.00 0.00 40 1008.7
20260905223204 100 65 0.0 0.0 0.00 0.00 0.00 39 1008.6
20260905222203 100 109 0.0 0.0 0.00 0.00 0.00 38 1008.6
20260905221704 101 99 0.0 0.0 0.00 0.00 0.00 38 1008.6
20260905221203 100 73 0.0 0.0 0.00 0.00 0.00 38 1008.6
20260905220704 100 296 0.0 0.0 0.00 0.00 0.00 38 1008.6
20260905215704 100 34 0.0 0.0 0.00 0.00 0.00 38 1008.7
20260905215204 100 333 0.0 0.0 0.00 0.00 0.00 38 1008.7
20260905214704 100 95 0.0 0.0 0.00 0.00 0.00 38 1008.7
20260905214204 100 120 0.0 0.0 0.00 0.00 0.00 38 1008.7
20260905213704 100 118 0.0 0.0 0.00 0.00 0.00 39 1008.7
20260905213203 99 103 0.0 0.0 0.00 0.00 0.00 39 1008.7
20260905212704 99 129 0.0 0.0 0.00 0.00 0.00 40 1008.7
20260905212203 99 101 0.0 1.0 0.00 0.00 0.00 39 1008.7
20260905210704 99 5 0.0 0.0 0.00 0.00 0.00 40 1008.9
20260905210203 100 12 0.0 0.0 0.00 0.00 0.00 39 1009.0
20260905205204 100 80 0.0 0.0 0.00 0.00 0.00 40 1009.1
20260905204704 99 109 0.0 0.0 0.00 0.00 0.00 41 1009.2
20260905204203 98 153 0.0 0.0 0.00 0.00 0.00 42 1009.4
20260905203703 97 158 0.0 0.0 0.00 0.00 0.00 42 1009.5
20260905203203 97 158 0.0 0.0 0.00 0.00 0.00 41 1009.6
20260905202703 97 158 0.0 0.0 0.00 0.00 0.00 41 1009.6
20260905201703 97 116 0.0 0.0 0.00 0.00 0.00 42 1009.9
20260905201204 97 104 0.0 0.0 0.00 0.00 0.00 43 1009.9
20260905200704 96 342 0.0 0.0 0.00 0.00 0.00 45 1010.0
20260905200203 96 350 0.0 0.0 0.00 0.00 0.00 45 1010.2
20260905195703 96 346 0.0 0.0 0.00 0.00 0.00 44 1010.3
20260905195204 96 350 0.0 0.0 0.00 0.00 0.00 44 1010.4
20260905194704 97 339 0.0 0.0 0.00 0.00 0.00 44 1010.5
20260905194203 97 311 0.0 0.0 0.00 0.00 0.00 43 1010.5
20260905193703 97 35 0.0 0.0 0.00 0.00 0.00 43 1010.5
20260905192704 98 189 0.0 1.0 0.00 0.00 0.00 41 1010.7
20260905192204 98 154 0.0 0.0 0.00 0.00 0.00 43 1010.8
20260905191704 98 172 0.0 5.0 0.00 0.00 0.00 42 1010.8
20260905191203 98 250 0.0 0.0 0.00 0.00 0.00 44 1010.9
20260905190204 97 57 0.0 0.0 0.00 0.00 0.00 45 1011.1
20260905185703 97 156 0.0 0.0 0.00 0.00 0.00 44 1011.2
20260905185204 96 156 0.0 0.0 0.00 0.00 0.00 45 1011.3
20260905183704 96 277 0.0 0.0 0.00 0.00 0.00 46 1011.5
20260905183203 95 186 0.0 0.0 0.00 0.00 0.00 46 1011.7
20260905182703 95 55 0.0 0.0 0.00 0.00 0.00 46 1011.8
20260905181704 94 242 0.0 0.0 0.00 0.00 0.00 48 1012.0
20260905181204 95 243 0.0 0.0 0.00 0.00 0.00 49 1012.1
20260905180704 95 243 0.0 0.0 0.00 0.00 0.00 50 1012.2
20260905180203 95 244 0.0 0.0 0.00 0.00 0.00 50 1012.3
20260905175203 95 233 0.0 0.0 0.00 0.00 0.00 50 1012.5
20260905174703 94 264 0.0 0.0 0.00 0.00 0.00 50 1012.6
20260905174204 94 293 0.0 0.0 0.00 0.00 0.00 49 1012.6
20260905173704 94 206 0.0 0.0 0.00 0.00 0.00 51 1012.8
20260905173204 93 180 0.0 0.0 0.00 0.00 0.00 53 1012.8
20260905172704 93 278 0.0 0.0 0.00 0.00 0.00 54 1013.0
20260905172203 92 299 0.0 0.0 0.00 0.00 0.00 56 1013.0
20260905171703 91 241 0.0 0.0 0.00 0.00 0.00 57 1013.1
20260905171204 91 189 0.0 0.0 0.00 0.00 0.00 57 1013.2
20260905170704 90 189 1.0 3.0 0.00 0.00 0.00 58 1013.2
20260905170204 90 187 0.0 0.0 0.00 0.00 0.00 60 1013.2
20260905165704 90 181 0.0 0.0 0.00 0.00 0.00 60 1013.3
20260905164704 89 185 0.0 3.0 0.00 0.00 0.00 62 1013.3
20260905164203 89 183 0.0 2.0 0.00 0.00 0.00 61 1013.3
20260905162704 89 181 0.0 3.0 0.00 0.00 0.00 62 1013.4
20260905161703 88 206 0.0 0.0 0.00 0.00 0.00 65 1013.4
20260905160704 88 188 0.0 1.0 0.00 0.00 0.00 67 1013.4
20260905160204 88 198 0.0 3.0 0.00 0.00 0.00 66 1013.4
20260905155703 88 237 0.0 0.0 0.00 0.00 0.00 67 1013.5
20260905154703 87 211 0.0 0.0 0.00 0.00 0.00 72 1013.5
20260905154203 87 166 0.0 0.0 0.00 0.00 0.00 72 1013.6
20260905153704 86 164 0.0 0.0 0.00 0.00 0.00 73 1013.5
20260905153204 86 159 0.0 0.0 0.00 0.00 0.00 73 1013.6
20260905152703 85 156 0.0 0.0 0.00 0.00 0.00 74 1013.5
20260905152204 85 135 0.0 0.0 0.00 0.00 0.00 74 1013.5
20260905151203 85 85 0.0 0.0 0.00 0.01 0.00 77 1013.4
20260905150703 84 183 0.0 0.0 0.00 0.01 0.00 79 1013.5
20260905150204 84 203 0.0 0.0 0.00 0.01 0.00 82 1013.4
20260905145704 83 208 0.0 0.0 0.00 0.01 0.00 83 1013.4
20260905145203 83 208 0.0 0.0 0.00 0.01 0.00 85 1013.4
20260905144704 82 212 0.0 0.0 0.00 0.01 0.00 86 1013.3
20260905144204 82 212 0.0 0.0 0.00 0.01 0.00 88 1013.3
20260905143704 81 148 0.0 0.0 0.00 0.01 0.00 89 1013.3
20260905142703 81 179 0.0 0.0 0.00 0.01 0.00 92 1013.4
20260905142204 80 179 0.0 0.0 0.00 0.01 0.00 92 1013.3
20260905141704 80 160 0.0 0.0 0.00 0.01 0.00 93 1013.3
20260905141203 80 160 0.0 1.0 0.00 0.01 0.00 93 1013.2
20260905140704 80 119 0.0 0.0 0.00 0.01 0.00 94 1013.2
20260905140204 79 114 0.0 0.0 0.00 0.01 0.00 94 1013.1
20260905135704 79 114 0.0 0.0 0.00 0.01 0.00 94 1013.1
20260905135204 79 114 0.0 0.0 0.00 0.01 0.00 94 1013.1
20260905134704 78 114 0.0 0.0 0.00 0.01 0.00 94 1013.2
20260905133704 78 114 0.0 0.0 0.00 0.01 0.00 95 1013.2
20260905133203 78 114 0.0 0.0 0.00 0.01 0.00 95 1013.2
20260905132704 77 114 0.0 0.0 0.00 0.01 0.00 95 1013.2
20260905131703 77 114 0.0 0.0 0.00 0.01 0.00 94 1013.0
20260905131203 77 114 0.0 0.0 0.00 0.01 0.00 94 1013.0
20260905130703 77 114 0.0 0.0 0.00 0.01 0.00 94 1013.0
20260905125703 76 114 0.0 0.0 0.00 0.01 0.00 94 1012.8
20260905125203 76 114 0.0 0.0 0.00 0.01 0.00 94 1012.7
20260905124703 76 114 0.0 0.0 0.00 0.01 0.00 94 1012.7
20260905122704 75 114 0.0 0.0 0.00 0.01 0.00 94 1012.5
20260905122204 75 114 0.0 0.0 0.00 0.01 0.00 94 1012.3
20260905121703 76 114 0.0 0.0 0.00 0.01 0.00 94 1012.3
20260905121203 75 114 0.0 0.0 0.00 0.01 0.00 93 1012.3
20260905120204 75 114 0.0 0.0 0.00 0.01 0.00 93 1012.2
20260905115704 76 114 0.0 0.0 0.00 0.02 0.00 93 1012.2
20260905115203 76 114 0.0 0.0 0.00 0.02 0.00 93 1012.2
20260905114703 76 114 0.0 0.0 0.00 0.03 0.00 93 1012.2
20260905114203 76 114 0.0 0.0 0.00 0.03 0.00 93 1012.1
20260905113704 76 114 0.0 0.0 0.00 0.04 0.00 93 1012.1
20260905113204 76 114 0.0 0.0 0.00 0.06 0.00 93 1012.2
20260905112704 76 114 0.0 0.0 0.00 0.07 0.00 93 1012.2
20260905112203 76 114 0.0 0.0 0.00 0.07 0.00 93 1012.1
20260905111703 76 114 0.0 0.0 0.00 0.07 0.00 93 1012.1
20260905110703 76 114 0.0 0.0 0.00 0.07 0.00 93 1011.9
20260905110203 76 114 0.0 0.0 0.00 0.07 0.00 93 1011.9
20260905105704 76 114 0.0 0.0 0.00 0.07 0.00 93 1011.9
20260905105203 76 114 0.0 0.0 0.00 0.07 0.00 93 1011.9
20260905104703 76 114 0.0 0.0 0.00 0.07 0.00 93 1011.9
20260905104203 76 114 0.0 0.0 0.00 0.07 0.00 93 1011.9
20260905103703 76 114 0.0 0.0 0.00 0.07 0.00 93 1011.8
20260905103204 75 114 0.0 0.0 0.00 0.07 0.00 93 1011.9
20260905102703 75 114 0.0 0.0 0.00 0.07 0.00 92 1011.9
20260905102204 75 114 0.0 0.0 0.00 0.07 0.00 92 1011.9
20260905101704 75 114 0.0 0.0 0.00 0.07 0.00 92 1011.9
20260905101203 75 114 0.0 0.0 0.00 0.07 0.00 92 1011.7
20260905100704 76 114 0.0 0.0 0.00 0.07 0.00 92 1011.6
20260905095704 76 114 0.0 0.0 0.00 0.07 0.00 92 1011.7
20260905095204 76 114 0.0 0.0 0.00 0.07 0.00 92 1011.6
20260905094203 76 114 0.0 0.0 0.00 0.07 0.00 91 1011.6
20260905093704 76 114 0.0 0.0 0.00 0.07 0.00 92 1011.6
20260905093204 76 114 0.0 0.0 0.00 0.07 0.00 91 1011.6
20260905092704 76 114 0.0 0.0 0.00 0.07 0.00 91 1011.7
20260905092204 76 114 0.0 0.0 0.00 0.07 0.00 91 1011.8